TimeCDT,TemperatureF,Dew PointF,Humidity,Sea Level PressureIn,VisibilityMPH,Wind Direction,Wind SpeedMPH,Gust SpeedMPH,PrecipitationIn,Events,Conditions,WindDirDegrees,DateUTC
12:15 AM,45.7,32.9,61,29.98,10.0,South,10.4,-,N/A,,Clear,190,2012-10-09 05:15:00
12:35 AM,44.6,33.8,66,29.97,10.0,South,12.7,-,N/A,,Clear,180,2012-10-09 05:35:00
12:55 AM,45.1,33.4,64,29.97,10.0,South,11.5,-,N/A,,Clear,180,2012-10-09 05:55:00
1:15 AM,45.5,33.6,63,29.97,10.0,South,11.5,-,N/A,,Scattered Clouds,190,2012-10-09 06:15:00
1:35 AM,46.4,33.8,62,29.97,10.0,South,11.5,-,N/A,,Mostly Cloudy,190,2012-10-09 06:35:00
1:55 AM,47.7,33.8,59,29.98,10.0,South,13.8,-,N/A,,Overcast,190,2012-10-09 06:55:00
2:35 AM,48.2,33.8,58,29.96,10.0,South,11.5,-,N/A,,Overcast,190,2012-10-09 07:35:00
2:55 AM,47.3,34.0,60,29.96,10.0,South,12.7,-,N/A,,Overcast,190,2012-10-09 07:55:00
3:15 AM,46.9,33.8,60,29.96,10.0,South,10.4,-,N/A,,Overcast,190,2012-10-09 08:15:00
3:35 AM,46.8,34.0,61,29.95,10.0,South,12.7,-,N/A,,Overcast,190,2012-10-09 08:35:00
3:55 AM,46.6,34.2,62,29.95,10.0,South,13.8,-,N/A,,Overcast,190,2012-10-09 08:55:00
4:15 AM,46.4,34.3,63,29.94,10.0,South,16.1,-,N/A,,Overcast,180,2012-10-09 09:15:00
4:35 AM,45.9,34.7,65,29.94,10.0,South,17.3,-,N/A,,Overcast,180,2012-10-09 09:35:00
4:55 AM,44.8,34.7,68,29.94,10.0,South,13.8,-,N/A,,Mostly Cloudy,190,2012-10-09 09:55:00
5:15 AM,44.6,35.6,71,29.94,10.0,South,13.8,-,N/A,,Scattered Clouds,180,2012-10-09 10:15:00
5:35 AM,44.8,35.6,70,29.94,10.0,South,13.8,-,N/A,,Scattered Clouds,190,2012-10-09 10:35:00
5:55 AM,45.3,36.0,70,29.94,10.0,South,16.1,-,N/A,,Mostly Cloudy,190,2012-10-09 10:55:00
6:15 AM,45.7,36.3,70,29.93,10.0,South,17.3,-,N/A,,Overcast,190,2012-10-09 11:15:00
6:35 AM,44.6,37.4,76,29.93,10.0,South,16.1,-,N/A,,Scattered Clouds,190,2012-10-09 11:35:00
6:55 AM,44.4,36.5,74,29.93,10.0,South,13.8,-,N/A,,Clear,190,2012-10-09 11:55:00
7:15 AM,43.7,36.7,76,29.93,10.0,South,12.7,-,N/A,,Clear,180,2012-10-09 12:15:00
7:55 AM,44.1,37.4,77,29.94,10.0,South,12.7,-,N/A,,Clear,180,2012-10-09 12:55:00
8:15 AM,45.9,38.3,75,29.93,10.0,South,13.8,-,N/A,,Clear,190,2012-10-09 13:15:00
8:35 AM,48.2,39.0,71,29.93,10.0,South,16.1,-,N/A,,Clear,190,2012-10-09 13:35:00
8:55 AM,49.8,39.2,67,29.92,10.0,South,17.3,21.9,N/A,,Clear,190,2012-10-09 13:55:00
9:15 AM,50.9,38.8,63,29.91,10.0,South,18.4,26.5,N/A,,Clear,190,2012-10-09 14:15:00
9:35 AM,52.2,39.4,62,29.91,10.0,SSW,17.3,24.2,N/A,,Clear,200,2012-10-09 14:35:00
9:55 AM,54.7,39.4,56,29.91,10.0,South,19.6,25.3,N/A,,Clear,190,2012-10-09 14:55:00
10:15 AM,55.8,39.4,54,29.90,10.0,SSW,18.4,25.3,N/A,,Clear,200,2012-10-09 15:15:00
10:35 AM,56.3,39.2,53,29.90,10.0,SSW,19.6,25.3,N/A,,Clear,200,2012-10-09 15:35:00
10:55 AM,58.1,39.7,50,29.89,10.0,South,19.6,25.3,N/A,,Clear,190,2012-10-09 15:55:00
11:15 AM,59.2,39.2,48,29.89,10.0,SSW,17.3,-,N/A,,Clear,210,2012-10-09 16:15:00
11:35 AM,60.3,39.2,46,29.89,10.0,SSW,17.3,25.3,N/A,,Clear,210,2012-10-09 16:35:00
11:55 AM,60.4,38.8,45,29.87,10.0,SSW,20.7,27.6,N/A,,Clear,200,2012-10-09 16:55:00
12:15 PM,61.7,39.0,43,29.86,10.0,SSW,18.4,26.5,N/A,,Clear,210,2012-10-09 17:15:00
12:35 PM,62.8,37.9,40,29.86,10.0,SW,20.7,25.3,N/A,,Clear,220,2012-10-09 17:35:00
12:55 PM,63.0,37.6,39,29.85,10.0,SSW,23.0,28.8,N/A,,Clear,210,2012-10-09 17:55:00
1:15 PM,63.1,37.8,39,29.84,10.0,SSW,23.0,32.2,N/A,,Clear,200,2012-10-09 18:15:00
1:35 PM,63.0,37.6,39,29.83,10.0,SSW,23.0,28.8,N/A,,Clear,200,2012-10-09 18:35:00
2:35 PM,64.4,37.8,37,29.82,10.0,SW,23.0,29.9,N/A,,Clear,220,2012-10-09 19:35:00
2:55 PM,64.4,37.4,37,29.81,10.0,SSW,24.2,28.8,N/A,,Clear,200,2012-10-09 19:55:00
3:35 PM,65.8,37.6,35,29.81,10.0,SSW,24.2,28.8,N/A,,Clear,200,2012-10-09 20:35:00
3:55 PM,65.5,37.4,35,29.80,10.0,SW,19.6,28.8,N/A,,Clear,220,2012-10-09 20:55:00
4:15 PM,64.9,36.9,35,29.81,10.0,SW,21.9,26.5,N/A,,Clear,220,2012-10-09 21:15:00
4:35 PM,64.9,37.0,36,29.80,10.0,SW,18.4,25.3,N/A,,Mostly Cloudy,220,2012-10-09 21:35:00
5:15 PM,63.0,38.1,40,29.81,10.0,West,11.5,21.9,N/A,,Mostly Cloudy,270,2012-10-09 22:15:00
5:35 PM,61.7,38.5,42,29.81,10.0,West,13.8,20.7,N/A,,Mostly Cloudy,280,2012-10-09 22:35:00
5:55 PM,60.6,38.5,44,29.82,10.0,West,12.7,-,N/A,,Mostly Cloudy,270,2012-10-09 22:55:00
6:15 PM,60.4,38.5,44,29.82,10.0,West,12.7,17.3,N/A,,Overcast,270,2012-10-09 23:15:00
6:35 PM,54.7,41.7,62,29.85,10.0,WNW,20.7,31.1,N/A,,Overcast,300,2012-10-09 23:35:00
6:55 PM,52.5,41.7,67,29.86,10.0,NW,20.7,27.6,N/A,,Overcast,310,2012-10-09 23:55:00
7:15 PM,50.4,39.7,67,29.87,10.0,WNW,18.4,25.3,N/A,,Overcast,300,2012-10-10 00:15:00
7:35 PM,48.9,40.6,73,29.89,10.0,NW,21.9,35.7,N/A,Rain,Rain,310,2012-10-10 00:35:00
7:55 PM,44.6,40.3,85,29.90,7.0,WNW,16.1,23.0,0.03,Rain,Rain,300,2012-10-10 00:55:00
8:15 PM,43.9,40.5,88,29.91,5.0,WNW,13.8,-,0.03,Rain,Rain,300,2012-10-10 01:15:00
8:35 PM,43.7,40.3,88,29.91,5.0,WNW,12.7,18.4,0.08,Rain,Rain,300,2012-10-10 01:35:00
9:15 PM,43.0,39.9,89,29.92,5.0,WNW,9.2,-,0.04,Rain,Rain,300,2012-10-10 02:15:00
9:35 PM,42.8,40.1,90,29.92,7.0,West,8.1,-,0.08,Rain,Light Rain,280,2012-10-10 02:35:00
9:55 PM,42.8,39.6,88,29.92,7.0,West,9.2,-,0.11,Rain,Rain,270,2012-10-10 02:55:00
10:15 PM,42.8,39.4,88,29.91,10.0,West,4.6,-,0.01,Rain,Light Rain,260,2012-10-10 03:15:00
10:35 PM,42.8,39.4,88,29.91,10.0,WSW,5.8,-,0.01,,Overcast,240,2012-10-10 03:35:00
10:55 PM,42.8,39.6,88,29.92,10.0,WSW,6.9,-,0.01,,Overcast,240,2012-10-10 03:55:00
11:15 PM,42.8,39.7,89,29.92,10.0,WSW,6.9,-,N/A,,Mostly Cloudy,250,2012-10-10 04:15:00
11:35 PM,43.2,40.1,89,29.92,10.0,WSW,9.2,-,N/A,,Overcast,250,2012-10-10 04:35:00
11:55 PM,43.3,40.3,89,29.92,10.0,West,9.2,-,N/A,,Mostly Cloudy,260,2012-10-10 04:55:00